| time (UTC) | temp C | wind direction | speed KPH | gust KPH | rain 1hr cm | rain 24hr cm | rain mn cm | humidity % | barometer mb |
| 20260506191521 | -17 | 78 | 3.2 | 3.2 | 0.00 | 0.00 | 0.00 | 1012.9 | |
| 20260506191017 | -17 | 318 | 3.2 | 3.2 | 0.00 | 0.00 | 0.00 | 1012.9 | |
| 20260506190515 | -17 | 185 | 3.2 | 3.2 | 0.00 | 0.00 | 0.00 | 1012.9 | |
| 20260506190012 | -17 | 296 | 3.2 | 3.2 | 0.00 | 0.00 | 0.00 | 1013.7 | |
| 20260506185509 | -17 | 0 | 4.8 | 4.8 | 0.00 | 0.00 | 0.00 | 1013.7 | |
| 20260506185005 | -17 | 314 | 6.4 | 6.4 | 0.00 | 0.00 | 0.00 | 1013.7 | |
| 20260506184503 | -17 | 353 | 6.4 | 6.4 | 0.00 | 0.00 | 0.00 | 1013.2 | |
| 20260506184001 | -17 | 167 | 3.2 | 3.2 | 0.00 | 0.00 | 0.00 | 1013.2 | |
| 20260506183456 | -17 | 168 | 3.2 | 3.2 | 0.00 | 0.00 | 0.00 | 1013.2 | |
| 20260506182953 | -17 | 266 | 6.4 | 6.4 | 0.00 | 0.00 | 0.00 | 1013.7 | |
| 20260506182450 | -17 | 258 | 3.2 | 3.2 | 0.00 | 0.00 | 0.00 | 1013.7 | |
| 20260506181947 | -17 | 294 | 8.0 | 9.7 | 0.00 | 0.00 | 0.00 | 1013.7 | |
| 20260506181445 | -17 | 294 | 4.8 | 4.8 | 0.00 | 0.00 | 0.00 | 1013.2 | |
| 20260506180942 | -17 | 342 | 4.8 | 4.8 | 0.00 | 0.00 | 0.00 | 1013.2 | |
| 20260506180438 | -17 | 157 | 3.2 | 3.2 | 0.00 | 0.00 | 0.00 | 1013.2 | |
| 20260506175935 | -17 | 243 | 3.2 | 3.2 | 0.00 | 0.00 | 0.00 | 1013.7 | |
| 20260506175431 | -17 | 338 | 3.2 | 3.2 | 0.00 | 0.00 | 0.00 | 1013.7 | |
| 20260506174923 | -17 | 306 | 11.3 | 14.5 | 0.00 | 0.00 | 0.00 | 1013.7 | |
| 20260506174421 | -17 | 317 | 6.4 | 6.4 | 0.00 | 0.00 | 0.00 | 1013.7 | |
| 20260506173917 | -17 | 319 | 9.7 | 9.7 | 0.00 | 0.00 | 0.00 | 1013.7 | |
| 20260506173413 | -17 | 271 | 3.2 | 3.2 | 0.00 | 0.00 | 0.00 | 1013.7 | |
| 20260506172911 | -17 | 312 | 6.4 | 6.4 | 0.00 | 0.00 | 0.00 | 1013.2 | |
| 20260506172407 | -17 | 342 | 9.7 | 11.3 | 0.00 | 0.00 | 0.00 | 1013.2 | |
| 20260506171904 | -17 | 0 | 6.4 | 8.0 | 0.00 | 0.00 | 0.00 | 1013.2 | |
| 20260506171402 | -17 | 276 | 9.7 | 11.3 | 0.00 | 0.00 | 0.00 | 1013.7 | |
| 20260506170859 | -17 | 302 | 9.7 | 9.7 | 0.00 | 0.00 | 0.00 | 1013.7 | |
| 20260506170355 | -17 | 222 | 8.0 | 8.0 | 0.00 | 0.00 | 0.00 | 1013.7 | |
| 20260506165849 | -17 | 303 | 4.8 | 4.8 | 0.00 | 0.00 | 0.00 | 1014.0 | |
| 20260506165346 | -17 | 308 | 6.4 | 6.4 | 0.00 | 0.00 | 0.00 | 1014.0 | |
| 20260506164842 | -17 | 354 | 6.4 | 6.4 | 0.00 | 0.00 | 0.00 | 1014.0 | |
| 20260506164339 | -17 | 285 | 6.4 | 6.4 | 0.00 | 0.00 | 0.00 | 1013.7 | |
| 20260506163837 | -17 | 322 | 3.2 | 3.2 | 0.00 | 0.00 | 0.00 | 1013.7 | |
| 20260506163331 | -17 | 312 | 3.2 | 3.2 | 0.00 | 0.00 | 0.00 | 1013.7 | |
| 20260506162827 | -17 | 229 | 9.7 | 9.7 | 0.00 | 0.00 | 0.00 | 1013.7 | |
| 20260506162325 | -17 | 336 | 11.3 | 12.9 | 0.00 | 0.00 | 0.00 | 1013.7 | |
| 20260506161823 | -17 | 9 | 6.4 | 6.4 | 0.00 | 0.00 | 0.00 | 1013.7 | |
| 20260506161319 | -17 | 316 | 4.8 | 4.8 | 0.00 | 0.00 | 0.00 | 1013.2 | |
| 20260506160812 | -17 | 128 | 8.0 | 9.7 | 0.00 | 0.00 | 0.00 | 1013.2 | |
| 20260506160308 | -17 | 336 | 4.8 | 4.8 | 0.00 | 0.00 | 0.00 | 1013.2 | |
| 20260506155807 | -17 | 282 | 9.7 | 11.3 | 0.00 | 0.00 | 0.00 | 1012.9 | |
| 20260506155306 | -17 | 354 | 6.4 | 6.4 | 0.00 | 0.00 | 0.00 | 1012.9 | |
| 20260506153415 | -17 | 338 | 4.8 | 6.4 | 0.00 | 0.00 | 0.00 | 1012.9 | |
| 20260506152913 | -17 | 325 | 9.7 | 9.7 | 0.00 | 0.00 | 0.00 | 1012.9 | |
| 20260506152409 | -17 | 19 | 6.4 | 6.4 | 0.00 | 0.00 | 0.00 | 1012.9 | |
| 20260506151908 | -17 | 330 | 6.4 | 6.4 | 0.00 | 0.00 | 0.00 | 1012.9 | |
| 20260506151404 | -17 | 157 | 0.0 | 0.0 | 0.00 | 0.00 | 0.00 | 1012.5 | |
| 20260506150902 | -17 | 101 | 6.4 | 8.0 | 0.00 | 0.00 | 0.00 | 1012.5 | |
| 20260506150358 | -17 | 322 | 4.8 | 4.8 | 0.00 | 0.00 | 0.00 | 1012.5 | |
| 20260506145855 | -17 | 33 | 4.8 | 4.8 | 0.00 | 0.00 | 0.00 | 1012.2 | |
| 20260506145351 | -17 | 354 | 6.4 | 6.4 | 0.00 | 0.00 | 0.00 | 1012.2 | |
| 20260506144849 | -17 | 12 | 11.3 | 14.5 | 0.00 | 0.00 | 0.00 | 1012.2 | |
| 20260506144345 | -17 | 240 | 4.8 | 4.8 | 0.00 | 0.00 | 0.00 | 1012.2 | |
| 20260506143844 | -17 | 258 | 8.0 | 8.0 | 0.00 | 0.00 | 0.00 | 1012.2 | |
| 20260506143340 | -17 | 258 | 3.2 | 3.2 | 0.00 | 0.00 | 0.00 | 1012.2 | |
| 20260506142839 | -17 | 258 | 3.2 | 3.2 | 0.00 | 0.00 | 0.00 | 1012.2 | |
| 20260506142336 | -17 | 258 | 8.0 | 8.0 | 0.00 | 0.00 | 0.00 | 1012.2 | |
| 20260506141834 | -17 | 258 | 8.0 | 8.0 | 0.00 | 0.00 | 0.00 | 1012.2 | |
| 20260506141332 | -17 | 153 | 8.0 | 8.0 | 0.00 | 0.00 | 0.00 | 1012.5 | |
| 20260506140830 | -17 | 0 | 3.2 | 3.2 | 0.00 | 0.00 | 0.00 | 1012.5 | |
| 20260506140327 | -17 | 0 | 0.0 | 0.0 | 0.00 | 0.00 | 0.00 | 1012.5 | |
| 20260506135824 | -17 | 0 | 3.2 | 3.2 | 0.00 | 0.00 | 0.00 | 1012.2 | |
| 20260506135320 | -17 | 0 | 6.4 | 6.4 | 0.00 | 0.00 | 0.00 | 1012.2 | |
| 20260506134817 | -17 | 0 | 3.2 | 3.2 | 0.00 | 0.00 | 0.00 | 1012.2 | |
| 20260506134313 | -17 | 0 | 4.8 | 4.8 | 0.00 | 0.00 | 0.00 | 1012.2 | |
| 20260506133810 | -17 | 0 | 3.2 | 3.2 | 0.00 | 0.00 | 0.00 | 1012.2 | |
| 20260506133307 | -17 | 0 | 1.6 | 1.6 | 0.00 | 0.00 | 0.00 | 1012.2 | |
| 20260506132804 | -17 | 0 | 0.0 | 0.0 | 0.00 | 0.00 | 0.00 | 1012.5 | |
| 20260506132301 | -17 | 0 | 3.2 | 3.2 | 0.00 | 0.00 | 0.00 | 1012.5 | |
| 20260506131759 | -17 | 0 | 0.0 | 0.0 | 0.00 | 0.00 | 0.00 | 1012.5 | |
| 20260506131254 | -17 | 0 | 0.0 | 0.0 | 0.00 | 0.00 | 0.00 | 1011.9 | |
| 20260506130751 | -17 | 0 | 3.2 | 3.2 | 0.00 | 0.00 | 0.00 | 1011.9 | |
| 20260506130248 | -17 | 0 | 0.0 | 0.0 | 0.00 | 0.00 | 0.00 | 1011.9 | |
| 20260506125746 | -17 | 0 | 0.0 | 0.0 | 0.00 | 0.00 | 0.00 | 1011.5 | |
| 20260506125244 | -17 | 0 | 6.4 | 6.4 | 0.00 | 0.00 | 0.00 | 1011.5 | |
| 20260506124742 | -17 | 0 | 3.2 | 3.2 | 0.00 | 0.00 | 0.00 | 1011.5 | |
| 20260506124240 | -17 | 0 | 3.2 | 3.2 | 0.00 | 0.00 | 0.00 | 1011.2 | |
| 20260506123737 | -17 | 0 | 0.0 | 0.0 | 0.00 | 0.00 | 0.00 | 1011.2 | |
| 20260506123235 | -17 | 0 | 1.6 | 1.6 | 0.00 | 0.00 | 0.00 | 1011.2 | |
| 20260506122732 | -17 | 0 | 0.0 | 0.0 | 0.00 | 0.00 | 0.00 | 1011.2 | |
| 20260506122229 | -17 | 0.0 | 0.0 | 0.00 | 0.00 | 0.00 | 1009.5 | ||
| 20260506121728 | -17 | 0.0 | 0.0 | 0.00 | 0.00 | 0.00 | 1009.5 | ||
| 20260506121224 | -17 | 0.0 | 0.0 | 0.00 | 0.00 | 0.00 | 1009.5 | ||
| 20260506120722 | -17 | 0.0 | 0.0 | 0.00 | 0.00 | 0.00 | 1009.5 | ||
| 20260506120219 | -17 | 0.0 | 0.0 | 0.00 | 0.00 | 0.00 | 1009.5 | ||
| 20260506115717 | -17 | 0.0 | 0.0 | 0.00 | 0.00 | 0.00 | 1009.5 | ||
| 20260506115215 | -17 | 0.0 | 0.0 | 0.00 | 0.00 | 0.00 | 1009.5 | ||
| 20260506114712 | -17 | 0.0 | 0.0 | 0.00 | 0.00 | 0.00 | 1009.5 | ||
| 20260506114209 | -17 | 0.0 | 0.0 | 0.00 | 0.00 | 0.00 | 1009.5 | ||
| 20260506113708 | -17 | 0.0 | 0.0 | 0.00 | 0.00 | 0.00 | 1009.5 | ||
| 20260506113205 | -17 | 0.0 | 0.0 | 0.00 | 0.00 | 0.00 | 1009.5 | ||
| 20260506112701 | -17 | 0.0 | 0.0 | 0.00 | 0.00 | 0.00 | 1009.5 | ||
| 20260506112159 | -17 | 0.0 | 0.0 | 0.00 | 0.00 | 0.00 | 1009.5 | ||
| 20260506111656 | -17 | 0.0 | 0.0 | 0.00 | 0.00 | 0.00 | 1009.5 | ||
| 20260506111154 | -17 | 0.0 | 0.0 | 0.00 | 0.00 | 0.00 | 1009.5 | ||
| 20260506110651 | -17 | 0.0 | 0.0 | 0.00 | 0.00 | 0.00 | 1009.5 | ||
| 20260506110148 | -17 | 0.0 | 0.0 | 0.00 | 0.00 | 0.00 | 1009.5 | ||
| 20260506105644 | -17 | 0.0 | 0.0 | 0.00 | 0.00 | 0.00 | 1009.5 | ||
| 20260506105141 | -17 | 0.0 | 0.0 | 0.00 | 0.00 | 0.00 | 1009.5 | ||
| 20260506104640 | -17 | 0.0 | 0.0 | 0.00 | 0.00 | 0.00 | 1009.5 | ||
| 20260506104137 | -17 | 0.0 | 0.0 | 0.00 | 0.00 | 0.00 | 1009.5 | ||
| 20260506103634 | -17 | 0.0 | 0.0 | 0.00 | 0.00 | 0.00 | 1009.5 | ||
| 20260506103131 | -17 | 0.0 | 0.0 | 0.00 | 0.00 | 0.00 | 1009.5 | ||
| 20260506102629 | -17 | 0.0 | 0.0 | 0.00 | 0.00 | 0.00 | 1009.5 | ||
| 20260506102126 | -17 | 0.0 | 0.0 | 0.00 | 0.00 | 0.00 | 1009.5 | ||
| 20260506101623 | -17 | 0.0 | 0.0 | 0.00 | 0.00 | 0.00 | 1009.5 | ||
| 20260506101119 | -17 | 0.0 | 0.0 | 0.00 | 0.00 | 0.00 | 1009.5 | ||
| 20260506100618 | -17 | 0.0 | 0.0 | 0.00 | 0.00 | 0.00 | 1009.5 | ||
| 20260506100116 | -17 | 0.0 | 0.0 | 0.00 | 0.00 | 0.00 | 1009.5 | ||
| 20260506095615 | -17 | 0.0 | 0.0 | 0.00 | 0.00 | 0.00 | 1009.5 | ||
| 20260506095111 | -17 | 0.0 | 0.0 | 0.00 | 0.00 | 0.00 | 1009.5 | ||
| 20260506094608 | -17 | 0.0 | 0.0 | 0.00 | 0.00 | 0.00 | 1009.5 | ||
| 20260506094106 | -17 | 0.0 | 0.0 | 0.00 | 0.00 | 0.00 | 1009.5 | ||
| 20260506093604 | -17 | 0.0 | 0.0 | 0.00 | 0.00 | 0.00 | 1009.5 | ||
| 20260506093101 | -17 | 0.0 | 0.0 | 0.00 | 0.00 | 0.00 | 1009.5 | ||
| 20260506092559 | -17 | 0.0 | 0.0 | 0.00 | 0.00 | 0.00 | 1009.5 | ||
| 20260506092055 | -17 | 0.0 | 0.0 | 0.00 | 0.00 | 0.00 | 1009.5 | ||
| 20260506091554 | -17 | 0.0 | 0.0 | 0.00 | 0.00 | 0.00 | 1009.5 | ||
| 20260506091051 | -17 | 0.0 | 0.0 | 0.00 | 0.00 | 0.00 | 1009.5 | ||
| 20260506090549 | -17 | 0.0 | 0.0 | 0.00 | 0.00 | 0.00 | 1009.5 | ||
| 20260506090045 | -17 | 0.0 | 0.0 | 0.00 | 0.00 | 0.00 | 1009.5 | ||
| 20260506085542 | -17 | 0.0 | 0.0 | 0.00 | 0.00 | 0.00 | 1009.5 | ||
| 20260506085038 | -17 | 0.0 | 0.0 | 0.00 | 0.00 | 0.00 | 1009.5 | ||
| 20260506084535 | -17 | 0.0 | 0.0 | 0.00 | 0.00 | 0.00 | 1009.5 | ||
| 20260506084031 | -17 | 0.0 | 0.0 | 0.00 | 0.00 | 0.00 | 1009.5 | ||
| 20260506083528 | -17 | 0.0 | 0.0 | 0.00 | 0.00 | 0.00 | 1009.5 | ||
| 20260506083026 | -17 | 0.0 | 0.0 | 0.00 | 0.00 | 0.00 | 1009.5 | ||
| 20260506082523 | -17 | 0.0 | 0.0 | 0.00 | 0.00 | 0.00 | 1009.5 | ||
| 20260506082018 | -17 | 0.0 | 0.0 | 0.00 | 0.00 | 0.00 | 1009.5 | ||
| 20260506081517 | -17 | 0.0 | 0.0 | 0.00 | 0.00 | 0.00 | 1009.5 | ||
| 20260506081014 | -17 | 0.0 | 0.0 | 0.00 | 0.00 | 0.00 | 1009.5 | ||
| 20260506080511 | -17 | 0.0 | 0.0 | 0.00 | 0.00 | 0.00 | 1009.5 | ||
| 20260506073455 | -17 | 0.0 | 0.0 | 0.00 | 0.00 | 0.00 | 1009.5 | ||
| 20260506072952 | -17 | 0.0 | 0.0 | 0.00 | 0.00 | 0.00 | 1009.5 | ||
| 20260506072449 | -17 | 0.0 | 0.0 | 0.00 | 0.00 | 0.00 | 1009.5 | ||
| 20260506071947 | -17 | 0.0 | 0.0 | 0.00 | 0.00 | 0.00 | 1009.5 | ||
| 20260506071444 | -17 | 0.0 | 0.0 | 0.00 | 0.00 | 0.00 | 1009.5 | ||
| 20260506070941 | -17 | 0.0 | 0.0 | 0.00 | 0.00 | 0.00 | 1009.5 | ||
| 20260506070438 | -17 | 0.0 | 0.0 | 0.00 | 0.00 | 0.00 | 1009.5 | ||
| 20260506062416 | -17 | 0.0 | 0.0 | 0.00 | 0.00 | 0.00 | 1009.5 | ||
| 20260506061911 | -17 | 0.0 | 0.0 | 0.00 | 0.00 | 0.00 | 1009.5 | ||
| 20260506061408 | -17 | 0.0 | 0.0 | 0.00 | 0.00 | 0.00 | 1009.5 | ||
| 20260506060906 | -17 | 0.0 | 0.0 | 0.00 | 0.00 | 0.00 | 1009.5 | ||
| 20260506060404 | -17 | 0.0 | 0.0 | 0.00 | 0.00 | 0.00 | 1009.5 | ||
| 20260506051336 | -17 | 0.0 | 0.0 | 0.00 | 0.00 | 0.00 | 1009.5 | ||
| 20260506050833 | -17 | 0.0 | 0.0 | 0.00 | 0.00 | 0.00 | 1009.5 | ||
| 20260506050330 | -17 | 0.0 | 0.0 | 0.00 | 0.00 | 0.00 | 1009.5 | ||
| 20260506044821 | -17 | 0.0 | 0.0 | 0.00 | 0.00 | 0.00 | 1009.5 | ||
| 20260506044319 | -17 | 0.0 | 0.0 | 0.00 | 0.00 | 0.00 | 1009.5 | ||
| 20260506043816 | -17 | 0.0 | 0.0 | 0.00 | 0.00 | 0.00 | 1009.5 | ||
| 20260506043313 | -17 | 0.0 | 0.0 | 0.00 | 0.00 | 0.00 | 1009.5 | ||
| 20260506042811 | -17 | 0.0 | 0.0 | 0.00 | 0.00 | 0.00 | 1009.5 | ||
| 20260506042310 | -17 | 0.0 | 0.0 | 0.00 | 0.00 | 0.00 | 1009.5 | ||
| 20260506041808 | -17 | 0.0 | 0.0 | 0.00 | 0.00 | 0.00 | 1009.5 | ||
| 20260506041305 | -17 | 0.0 | 0.0 | 0.00 | 0.00 | 0.00 | 1009.5 | ||
| 20260506040802 | -17 | 0.0 | 0.0 | 0.00 | 0.00 | 0.00 | 1009.5 | ||
| 20260506040259 | -17 | 0.0 | 0.0 | 0.00 | 0.00 | 0.00 | 1009.5 | ||
| 20260506035756 | -17 | 0.0 | 0.0 | 0.00 | 0.00 | 0.00 | 1009.5 | ||
| 20260506035253 | -17 | 0.0 | 0.0 | 0.00 | 0.00 | 0.00 | 1009.5 | ||
| 20260506034750 | -17 | 0.0 | 0.0 | 0.00 | 0.00 | 0.00 | 1009.5 | ||
| 20260506034247 | -17 | 0.0 | 0.0 | 0.00 | 0.00 | 0.00 | 1009.5 | ||
| 20260506033744 | -17 | 0.0 | 0.0 | 0.00 | 0.00 | 0.00 | 1009.5 | ||
| 20260506033241 | -17 | 0.0 | 0.0 | 0.00 | 0.00 | 0.00 | 1009.5 | ||
| 20260506032738 | -17 | 0.0 | 0.0 | 0.00 | 0.00 | 0.00 | 1009.5 | ||
| 20260506032235 | -17 | 0.0 | 0.0 | 0.00 | 0.00 | 0.00 | 1009.5 | ||
| 20260506031731 | -17 | 0.0 | 0.0 | 0.00 | 0.00 | 0.00 | 1009.5 | ||
| 20260506031229 | -17 | 0.0 | 0.0 | 0.00 | 0.00 | 0.00 | 1009.5 | ||
| 20260506030727 | -17 | 0.0 | 0.0 | 0.00 | 0.00 | 0.00 | 1009.5 | ||
| 20260506030224 | -17 | 0.0 | 0.0 | 0.00 | 0.00 | 0.00 | 1009.5 | ||
| 20260506025721 | -17 | 0.0 | 0.0 | 0.00 | 0.00 | 0.00 | 1009.5 | ||
| 20260506025217 | -17 | 0.0 | 0.0 | 0.00 | 0.00 | 0.00 | 1009.5 | ||
| 20260506024714 | -17 | 0.0 | 0.0 | 0.00 | 0.00 | 0.00 | 1009.5 | ||
| 20260506024211 | -17 | 0.0 | 0.0 | 0.00 | 0.00 | 0.00 | 1009.5 | ||
| 20260506023707 | -17 | 0.0 | 0.0 | 0.00 | 0.00 | 0.00 | 1009.5 | ||
| 20260506023205 | -17 | 0.0 | 0.0 | 0.00 | 0.00 | 0.00 | 1009.5 | ||
| 20260506022701 | -17 | 0.0 | 0.0 | 0.00 | 0.00 | 0.00 | 1009.5 | ||
| 20260506022159 | -17 | 0.0 | 0.0 | 0.00 | 0.00 | 0.00 | 1009.5 | ||
| 20260506021657 | -17 | 0.0 | 0.0 | 0.00 | 0.00 | 0.00 | 1009.5 | ||
| 20260506021154 | -17 | 0.0 | 0.0 | 0.00 | 0.00 | 0.00 | 1009.5 | ||
| 20260506020651 | -17 | 0.0 | 0.0 | 0.00 | 0.00 | 0.00 | 1009.5 | ||
| 20260506020148 | -17 | 0.0 | 0.0 | 0.00 | 0.00 | 0.00 | 1009.5 | ||
| 20260506015646 | -17 | 0.0 | 0.0 | 0.00 | 0.00 | 0.00 | 1009.5 | ||
| 20260506015143 | -17 | 0.0 | 0.0 | 0.00 | 0.00 | 0.00 | 1009.5 | ||
| 20260506014641 | -17 | 0.0 | 0.0 | 0.00 | 0.00 | 0.00 | 1009.5 | ||
| 20260506014136 | -17 | 0.0 | 0.0 | 0.00 | 0.00 | 0.00 | 1009.5 | ||
| 20260506013634 | -17 | 0.0 | 0.0 | 0.00 | 0.00 | 0.00 | 1009.5 | ||
| 20260506013131 | -17 | 0.0 | 0.0 | 0.00 | 0.00 | 0.00 | 1009.5 | ||
| 20260506012627 | -17 | 0.0 | 0.0 | 0.00 | 0.00 | 0.00 | 1009.5 | ||
| 20260506012123 | -17 | 0.0 | 0.0 | 0.00 | 0.00 | 0.00 | 1009.5 | ||
| 20260506011621 | -17 | 0.0 | 0.0 | 0.00 | 0.00 | 0.00 | 1009.5 | ||
| 20260506011117 | -17 | 0.0 | 0.0 | 0.00 | 0.00 | 0.00 | 1009.5 | ||
| 20260506010611 | -17 | 0.0 | 0.0 | 0.00 | 0.00 | 0.00 | 1009.5 | ||
| 20260506010108 | -17 | 0.0 | 0.0 | 0.00 | 0.00 | 0.00 | 1009.5 | ||
| 20260506005605 | -17 | 0.0 | 0.0 | 0.00 | 0.00 | 0.00 | 1009.5 | ||
| 20260506005101 | -17 | 0.0 | 0.0 | 0.00 | 0.00 | 0.00 | 1009.5 | ||
| 20260506004558 | -17 | 0.0 | 0.0 | 0.00 | 0.00 | 0.00 | 1009.5 | ||
| 20260506004055 | -17 | 0.0 | 0.0 | 0.00 | 0.00 | 0.00 | 1009.5 | ||
| 20260506003551 | -17 | 0.0 | 0.0 | 0.00 | 0.00 | 0.00 | 1009.5 | ||
| 20260506003048 | -17 | 0.0 | 0.0 | 0.00 | 0.00 | 0.00 | 1009.5 | ||
| 20260506002544 | -17 | 0.0 | 0.0 | 0.00 | 0.00 | 0.00 | 1009.5 | ||
| 20260506002040 | -17 | 0.0 | 0.0 | 0.00 | 0.00 | 0.00 | 1009.5 | ||
| 20260506001536 | -17 | 0.0 | 0.0 | 0.00 | 0.00 | 0.00 | 1009.5 | ||
| 20260506001033 | -17 | 0.0 | 0.0 | 0.00 | 0.00 | 0.00 | 1009.5 | ||
| 20260506000531 | -17 | 0.0 | 0.0 | 0.00 | 0.00 | 0.00 | 1009.5 | ||
| 20260506000028 | -17 | 0.0 | 0.0 | 0.00 | 0.00 | 0.00 | 1009.5 | ||
| 20260505235526 | -17 | 0.0 | 0.0 | 0.00 | 0.00 | 0.00 | 1009.5 | ||
| 20260505235022 | -17 | 0.0 | 0.0 | 0.00 | 0.00 | 0.00 | 1009.5 | ||
| 20260505234520 | -17 | 0.0 | 0.0 | 0.00 | 0.00 | 0.00 | 1009.5 | ||
| 20260505234016 | -17 | 0.0 | 0.0 | 0.00 | 0.00 | 0.00 | 1009.5 | ||
| 20260505233514 | -17 | 0.0 | 0.0 | 0.00 | 0.00 | 0.00 | 1009.5 | ||
| 20260505233011 | -17 | 0.0 | 0.0 | 0.00 | 0.00 | 0.00 | 1009.5 | ||
| 20260505232509 | -17 | 0.0 | 0.0 | 0.00 | 0.00 | 0.00 | 1009.5 | ||
| 20260505232006 | -17 | 0.0 | 0.0 | 0.00 | 0.00 | 0.00 | 1009.5 | ||
| 20260505231503 | -17 | 0.0 | 0.0 | 0.00 | 0.00 | 0.00 | 1009.5 | ||
| 20260505231002 | -17 | 0.0 | 0.0 | 0.00 | 0.00 | 0.00 | 1009.5 | ||
| 20260505230459 | -17 | 0.0 | 0.0 | 0.00 | 0.00 | 0.00 | 1009.5 | ||
| 20260505225955 | -17 | 0.0 | 0.0 | 0.00 | 0.00 | 0.00 | 1009.5 | ||
| 20260505225452 | -17 | 0.0 | 0.0 | 0.00 | 0.00 | 0.00 | 1009.5 | ||
| 20260505224948 | -17 | 0.0 | 0.0 | 0.00 | 0.00 | 0.00 | 1009.5 | ||
| 20260505224445 | -17 | 0.0 | 0.0 | 0.00 | 0.00 | 0.00 | 1009.5 | ||
| 20260505223942 | -17 | 0.0 | 0.0 | 0.00 | 0.00 | 0.00 | 1009.5 | ||
| 20260505223439 | -17 | 0.0 | 0.0 | 0.00 | 0.00 | 0.00 | 1009.5 | ||
| 20260505222935 | -17 | 0.0 | 0.0 | 0.00 | 0.00 | 0.00 | 1009.5 | ||
| 20260505222432 | -17 | 0.0 | 0.0 | 0.00 | 0.00 | 0.00 | 1009.5 | ||
| 20260505221928 | -17 | 0.0 | 0.0 | 0.00 | 0.00 | 0.00 | 1009.5 | ||
| 20260505221425 | -17 | 0.0 | 0.0 | 0.00 | 0.00 | 0.00 | 1009.5 | ||
| 20260505220922 | -17 | 0.0 | 0.0 | 0.00 | 0.00 | 0.00 | 1009.5 | ||
| 20260505220419 | -17 | 0.0 | 0.0 | 0.00 | 0.00 | 0.00 | 1009.5 | ||
| 20260505215917 | -17 | 0.0 | 0.0 | 0.00 | 0.00 | 0.00 | 1009.5 | ||
| 20260505215415 | -17 | 0.0 | 0.0 | 0.00 | 0.00 | 0.00 | 1009.5 | ||
| 20260505214912 | -17 | 0.0 | 0.0 | 0.00 | 0.00 | 0.00 | 1009.5 | ||
| 20260505214410 | -17 | 0.0 | 0.0 | 0.00 | 0.00 | 0.00 | 1009.5 | ||
| 20260505213907 | -17 | 0.0 | 0.0 | 0.00 | 0.00 | 0.00 | 1009.5 | ||
| 20260505213405 | -17 | 0.0 | 0.0 | 0.00 | 0.00 | 0.00 | 1009.5 | ||
| 20260505212900 | -17 | 0.0 | 0.0 | 0.00 | 0.00 | 0.00 | 1009.5 | ||
| 20260505212358 | -17 | 0.0 | 0.0 | 0.00 | 0.00 | 0.00 | 1009.5 | ||
| 20260505211854 | -17 | 0.0 | 0.0 | 0.00 | 0.00 | 0.00 | 1009.5 | ||
| 20260505211351 | -17 | 0.0 | 0.0 | 0.00 | 0.00 | 0.00 | 1009.5 | ||
| 20260505210848 | -17 | 0.0 | 0.0 | 0.00 | 0.00 | 0.00 | 1009.5 | ||
| 20260505210345 | -17 | 0.0 | 0.0 | 0.00 | 0.00 | 0.00 | 1009.5 | ||
| 20260505205841 | -17 | 0.0 | 0.0 | 0.00 | 0.00 | 0.00 | 1009.5 | ||
| 20260505205340 | -17 | 0.0 | 0.0 | 0.00 | 0.00 | 0.00 | 1009.5 | ||
| 20260505204836 | -17 | 0.0 | 0.0 | 0.00 | 0.00 | 0.00 | 1009.5 | ||
| 20260505204334 | -17 | 0.0 | 0.0 | 0.00 | 0.00 | 0.00 | 1009.5 | ||
| 20260505203831 | -17 | 0.0 | 0.0 | 0.00 | 0.00 | 0.00 | 1009.5 | ||
| 20260505203328 | -17 | 0.0 | 0.0 | 0.00 | 0.00 | 0.00 | 1009.5 | ||
| 20260505202824 | -17 | 0.0 | 0.0 | 0.00 | 0.00 | 0.00 | 1009.5 | ||
| 20260505202320 | -17 | 0.0 | 0.0 | 0.00 | 0.00 | 0.00 | 1009.5 | ||
| 20260505201817 | -17 | 0.0 | 0.0 | 0.00 | 0.00 | 0.00 | 1009.5 | ||
| 20260505201315 | -17 | 0.0 | 0.0 | 0.00 | 0.00 | 0.00 | 1009.5 | ||
| 20260505200813 | -17 | 0.0 | 0.0 | 0.00 | 0.00 | 0.00 | 1009.5 | ||
| 20260505200309 | -17 | 89 | 0.0 | 0.0 | 0.00 | 0.66 | 0.66 | 1009.5 | |
| 20260505195804 | -17 | 89 | 0.0 | 0.0 | 0.28 | 0.66 | 0.66 | 1009.5 | |
| 20260505195305 | -17 | 89 | 0.0 | 0.0 | 0.28 | 0.66 | 0.66 | 1009.5 | |
| 20260505194759 | -17 | 89 | 3.2 | 3.2 | 0.25 | 0.64 | 0.64 | 1009.5 | |
| 20260505194256 | -17 | 89 | 0.0 | 0.0 | 0.23 | 0.61 | 0.61 | 1009.2 | |
| 20260505193756 | -17 | 89 | 4.8 | 4.8 | 0.23 | 0.61 | 0.61 | 1009.2 | |
| 20260505193254 | -17 | 89 | 3.2 | 3.2 | 0.20 | 0.58 | 0.58 | 1009.2 | |
| 20260505192752 | -17 | 89 | 3.2 | 3.2 | 0.18 | 0.56 | 0.56 | 1009.5 | |
| 20260505192250 | -17 | 89 | 3.2 | 3.2 | 0.15 | 0.53 | 0.53 | 1009.5 |